Siga o Apolo11 no Facebook   Siga o Apolo11 no Twiiter
Ciência, Espaço e Tecnologia




Elementos Keplerianos formato Two Line

Para que um programa de rastreio possa saber a localização exata de qualquer satélite no espaço e assim poder rastreá-lo corretamente, é necessário que ele seja carregado com algumas informações.

Estas informações são chamadas de Elementos Orbitais ou Elementos Keplerianos e consistem em 2 linhas com dezenas de números. Esses números nada mais são que os parâmetros orbitais do satélite, tais como altitude, atitude, excentricidade da órbita, número de órbitas por dia, etc.

Com base nestas informações o programa é capaz de determinar com bastante exatidão a posição de qualquer satélite no espaço e nos informar em qual horário este estará dentro do alcance de nossa estação. Para que isso seja feito com precisão é necessário que os dados estejam sempre bem atualizadas.

Devido aos parâmetros orbitais serem descritos em 2 linhas, estes formato é também conhecido internacionalmente por 2line (leia-se Two Line”).

Para atualizar seu programa de rastreio basta copiar os dados disponibilizados e fornece-los ao programa. Nossos elementos orbitais são atualizados diariamente.

NOAATodos os satélites ambientais da série NOAA
30 DiasSatélites lançados nos últimos 30 dias
ISSSatélites e foguetes relacionados à Estação Espacial Internacional
HAMSatélites construídos por radiomadores
CUBESatélites tipo cubo, com 10 centímetros de lado
METEOSatélites voltados à previsão do tempo
EDUSatélites construídos e operados por universidades
VIS100 satélites mais brilhantes que podem ser vistos a olho nú



Satélites Educacionais
SAUDISAT 1C             
1 27607U 02058C   20274.47971274  .00000054  00000-0  28130-4 0  9990
2 27607  64.5561  53.2560 0035553 141.3850 218.9805 14.75663091956224
SAUDISAT 2              
1 28371U 04025F   20274.42242755 -.00000021  00000-0  59985-5 0  9993
2 28371  98.2865 222.3027 0024775 227.7987 132.1110 14.54391758862435
SAUDISAT 3              
1 31118U 07012B   20274.58654895 -.00000001  00000-0  79394-5 0  9998
2 31118  97.8815 229.0312 0015918  32.2234 327.9942 14.69172866721357
PISAT                   
1 41784U 16059B   20274.30775686  .00000121  00000-0  32293-4 0  9999
2 41784  98.0078 327.8948 0031479 345.4378  14.5915 14.63540910214248
FLYING LAPTOP           
1 42831U 17042G   20274.54821753  .00000498  00000-0  55449-4 0  9994
2 42831  97.5051 151.4607 0012661 298.2135  61.7856 14.91161363174951


IMAGENS DE SATÉLITES !    Clique e conheça nosso Vídeo Workshop de sensoriamento remoto e imagens meteorológicas.
Apolo11.com - Todos os direitos reservados - 2001 - 2020
Política de Privacidade

"Político honesto é o que, depois de comprado, permanece comprado" - Simon Cameron